Temp_Advection
nan nan nan nan nan nan nan nan nan nan nan nan nan nan nan nan nan nan nan nan nan nan nan nan nan nan nan nan nan nan nan nan nan nan nan nan nan nan nan nan nan nan nan nan nan nan nan nan nan nan nan nan nan nan nan nan nan nan nan nan nan nan nan nan nan nan nan nan nan nan nan nan nan nan
nan -0 -0 -0 0 1 0 -0 0 0 0 -0 -0 -0 -0 -0 -0 -0 -0 -2 -3 -2 -1 -0 -0 0 0 0 -0 -0 -1 -1 -0 -1 -1 -0 -1 -1 -0 1 1 1 0 0 0 0 1 1 1 1 1 0 0 0 0 0 0 0 0 0 -0 -0 0 0 0 0 0 0 0 -0 -0 0 0 nan
nan -0 -0 -0 -0 0 0 -0 0 0 0 0 -0 -0 -0 -0 -0 -0 -0 -1 -2 -2 -2 -2 -1 0 0 1 1 -0 -0 -0 -0 -0 -1 -1 -1 -0 -0 0 0 1 0 0 0 0 0 0 1 1 1 1 1 0 0 1 0 0 0 0 0 -0 -0 0 0 0 0 0 0 -0 -0 -0 0 nan
nan -1 -0 -0 -0 -0 -0 -0 -0 -0 0 0 0 -0 -0 -0 -1 -0 -0 -1 -2 -1 -1 -2 -2 -1 -1 -0 0 0 0 0 0 -0 -1 -1 -1 -0 -0 0 0 0 0 0 0 0 -0 -0 1 1 1 1 1 1 1 1 0 0 -0 0 0 -0 0 0 0 0 0 0 0 -0 -0 -0 0 nan
nan -0 -0 0 0 0 -0 -0 -0 -0 -0 -0 -0 -0 -0 -0 -0 -0 -0 -1 -3 -2 -0 -0 -1 -1 -1 -1 -1 -0 -0 1 1 0 0 -0 -1 -1 0 0 0 -0 0 0 0 0 0 -0 0 1 1 1 1 1 1 1 0 -0 -0 -0 0 0 -0 0 0 0 0 0 0 -0 -0 0 0 nan
nan -1 -1 0 1 0 -0 -0 -0 -0 -0 -0 -1 -0 -0 -0 -0 -0 -0 -0 -2 -3 -1 0 -1 -1 -1 -1 -1 -1 -1 -0 0 0 0 0 -1 -0 0 -0 -1 -0 0 0 0 0 0 0 0 1 1 1 1 1 1 1 0 -0 -0 -0 0 0 -0 0 1 0 0 0 0 -0 0 0 0 nan
nan -2 -2 -1 0 0 0 0 0 -0 -0 -0 -1 -1 -0 -0 -0 -0 -0 -0 -1 -2 -2 -0 -0 -1 -1 -1 -2 -1 -1 -1 -0 -0 -0 0 0 0 0 -0 -1 -0 0 0 0 0 0 0 1 1 1 1 1 1 1 0 0 0 0 -0 -0 0 -0 0 0 0 0 0 0 0 0 0 0 nan
nan -1 -2 -2 -1 -1 -1 -0 0 0 0 -0 -0 -1 -1 -1 -1 -0 0 -0 -0 -1 -2 -1 -0 -0 -1 -1 -1 -1 -1 -1 -1 -1 -1 -0 0 1 1 0 -0 -0 -0 -0 -0 -0 0 1 1 0 1 1 1 1 1 0 0 1 0 -0 0 0 0 -0 -0 0 1 1 1 1 1 0 0 nan
nan 0 -0 -1 -1 -1 -2 -1 -1 0 0 0 -0 -0 -0 -1 -1 -1 -0 -0 -0 -0 -2 -2 -1 -0 -1 -1 -1 -0 -1 -1 -1 -1 -1 -1 -0 0 0 0 -0 -0 -1 -0 0 0 0 1 1 1 1 1 1 1 0 0 1 1 0 0 0 0 -0 -0 -0 1 1 1 1 1 1 1 0 nan
nan 0 1 1 1 0 -1 -1 -1 -1 -0 -0 -0 -0 -0 -0 -1 -1 -1 -0 -0 -0 -1 -2 -1 -1 -0 -1 -1 -0 -0 -0 -1 -1 -1 -1 -1 -1 -1 -0 -0 -0 -0 -0 0 0 1 1 1 1 0 1 1 1 0 0 1 1 1 0 0 -0 0 0 0 1 1 1 1 1 1 1 1 nan
nan -0 -0 1 2 2 1 -0 -1 -1 -1 -1 -0 -0 -0 -0 -0 -1 -1 -1 -1 -1 -1 -2 -2 -1 -0 -1 -1 -1 -0 -0 -0 -0 -1 -2 -1 -0 -1 -1 -0 0 -0 -0 -0 0 1 1 1 1 0 1 1 1 1 0 1 1 1 1 0 0 0 0 1 1 1 1 1 0 0 0 1 nan
nan -0 -0 -0 0 1 1 1 0 -0 -1 -1 -1 -0 0 -0 -0 -0 -1 -1 -1 -1 -1 -2 -2 -1 -0 -1 -1 -1 -1 -1 -0 0 -0 -1 -1 -1 -1 -1 -0 -0 -0 0 -0 -0 0 1 1 1 0 0 1 2 1 0 0 1 1 0 0 0 0 1 1 1 1 1 1 0 0 0 1 nan
nan -0 -0 -0 -0 -0 1 1 1 1 1 -0 -1 -1 -0 -0 -0 -0 -0 -1 -1 -1 -1 -2 -2 -1 -1 -1 -1 -1 -1 -1 -1 0 0 -0 -1 -1 -1 -1 -1 -1 -0 -0 -0 -0 0 1 1 1 -0 0 2 2 1 0 -0 0 0 0 0 1 1 1 1 1 1 1 1 0 0 0 0 nan
nan -0 -0 0 0 0 0 0 1 1 1 1 0 -1 -1 -0 -0 -1 -1 -0 -0 -0 -1 -1 -2 -2 -2 -1 -1 -1 -1 -1 -1 -0 1 0 -0 -0 -1 -2 -2 -1 -1 -1 -1 -0 0 1 1 0 -0 1 2 1 -0 -1 -1 -0 0 0 0 1 1 1 1 1 1 1 1 1 1 0 0 nan
nan -0 -0 -0 -0 0 0 1 1 0 0 1 1 0 0 0 -0 -1 -1 -1 -0 -0 -1 -1 -1 -2 -2 -1 -0 -1 -1 -1 -1 -1 -0 0 0 -0 -1 -1 -2 -2 -1 -1 -1 -1 0 1 0 -0 0 0 1 0 0 0 -0 -0 1 1 0 0 1 1 1 1 1 1 1 1 1 0 0 nan
nan -1 -0 -0 -0 -0 -0 0 0 0 0 0 1 1 0 0 1 0 -1 -1 -1 -0 -1 -1 -1 -2 -2 -2 -1 -0 -1 -1 -1 -1 -0 -0 0 0 -0 -1 -2 -2 -1 -1 -1 -1 -1 0 0 0 0 0 0 0 1 2 0 0 1 0 0 1 1 2 2 2 2 1 1 1 0 -0 0 nan
nan -1 -1 -0 0 0 0 0 -0 -1 -1 -1 0 0 0 0 1 1 -0 -1 -0 -0 0 -2 -3 -2 -1 -2 -1 0 0 -1 -1 -1 -1 -0 -0 -0 -0 -1 -1 -1 -1 -1 -2 -2 -1 -0 -0 0 0 1 1 0 1 2 1 1 0 -0 1 2 2 2 3 2 2 2 1 1 0 -0 0 nan
nan -1 -1 -1 0 1 1 1 0 -1 -2 -3 -2 -1 -0 -0 0 1 1 0 -0 -0 0 -2 -3 -2 -0 -2 -1 1 1 -0 -1 -1 -1 -1 -0 -0 -0 -1 -1 -1 -1 -1 -1 -1 -1 -1 -0 -0 0 1 1 0 0 1 1 1 0 0 2 3 2 2 3 3 2 2 1 0 -0 -0 0 nan
nan -1 -1 -1 0 1 1 2 1 -0 -2 -3 -4 -3 -2 -1 -1 -0 1 1 0 -0 -0 -1 -2 -1 -0 -0 -1 1 1 0 -0 -1 -1 -1 -1 -1 -1 -1 -1 -1 -1 0 -0 -1 -1 -1 -0 -0 0 0 0 -0 -0 0 1 2 1 1 2 3 2 3 3 3 2 2 1 0 -0 -0 1 nan
nan 1 0 0 0 0 1 2 2 1 -1 -2 -3 -4 -3 -2 -2 -1 1 1 0 0 -0 -0 -1 -1 0 0 -0 0 1 0 -0 -0 -1 -1 -1 -1 -2 -2 -1 -1 -1 0 0 -1 -1 -1 0 0 -0 -0 -0 -0 -0 -0 1 2 2 2 2 3 3 3 3 3 2 1 1 0 -0 0 1 nan
nan 1 1 1 0 0 1 1 2 2 1 -1 -2 -3 -3 -3 -5 -3 -0 0 0 1 0 -0 0 0 0 0 -1 -1 1 1 1 -0 -2 -2 -1 -1 -1 -2 -2 -2 -1 -0 0 -0 -1 -1 1 1 0 -0 -0 -0 -0 0 1 2 3 2 2 3 2 3 3 2 1 1 1 -0 -0 1 1 nan
nan 0 0 1 0 -0 1 1 2 2 1 -0 -1 -1 -2 -3 -4 -4 -2 -1 0 1 1 0 0 -1 -1 -0 -1 -2 0 2 2 -1 -3 -1 0 -0 -1 -1 -2 -2 -2 -1 0 -0 -2 -1 1 1 0 -0 -1 -0 -0 0 1 2 2 2 3 3 2 2 3 2 1 1 0 -0 0 1 0 nan
nan -0 -1 -0 -0 -1 0 1 1 2 2 0 0 0 -1 -3 -3 -2 -2 -1 -0 0 0 0 -0 -2 -2 -1 -1 -1 -0 1 1 -1 -3 -1 1 -1 -1 -1 -1 -2 -3 -2 -0 -1 -2 -1 1 1 1 -0 -1 -0 1 1 1 2 2 3 3 2 1 2 3 2 1 0 -0 -0 0 0 1 nan
nan 1 0 -1 -1 -1 -1 -1 -0 0 1 1 1 1 -0 -3 -2 -1 -0 -0 0 -0 -1 -0 -1 -2 -2 -2 -1 -1 -0 0 1 -0 -1 -1 -0 -0 -0 -1 -1 -1 -4 -3 -0 -0 -2 -1 0 1 1 0 -1 -1 1 1 1 2 2 3 3 1 2 3 3 2 1 -0 -0 -0 0 1 1 nan
nan -0 -0 -0 -0 -1 -1 -1 -1 -1 -1 -0 1 1 0 -1 -0 0 -0 0 1 1 0 0 -1 -2 -2 -2 -2 -1 -1 -1 0 1 0 -0 -0 -1 -0 -1 -1 -1 -2 -3 -1 -0 -1 -1 -0 0 1 1 -1 -0 1 1 1 1 2 3 3 2 3 4 3 1 0 -0 -0 1 1 1 1 nan
nan -1 -1 -0 -0 -0 -0 0 0 -1 -2 -2 -1 0 0 0 1 0 0 -0 0 0 1 0 -1 -1 -1 -1 -1 -1 -2 -1 -0 0 0 0 -0 -1 -1 -1 -2 -1 -1 -2 -2 -1 -1 -1 -0 0 0 0 -0 0 1 1 1 1 2 2 3 3 3 3 2 0 -0 0 1 1 1 1 1 nan
nan -1 -1 -0 0 1 1 1 1 0 -0 -1 -2 -2 -1 0 1 2 1 0 -1 -1 -1 -0 -0 -0 -1 -1 -1 -1 -2 -2 -1 -0 -0 -0 -1 -1 -2 -2 -2 -2 -2 -2 -2 -1 -1 -1 -1 0 0 0 1 0 1 1 1 1 1 2 3 4 3 1 0 0 0 1 1 1 1 1 0 nan
nan -1 -1 0 1 1 1 1 1 1 0 -1 -3 -2 -1 1 3 2 1 -1 -1 -1 -1 -1 -0 -0 -1 -1 -1 -1 -1 -1 -1 -1 -1 -1 -1 -2 -3 -2 -2 -3 -2 -1 -1 -1 -1 -1 -1 -0 0 1 0 -0 0 1 1 1 2 2 2 3 2 1 1 1 1 1 1 1 1 0 0 nan
nan -1 -0 -0 0 0 -0 1 1 0 -0 -1 -1 -1 0 1 2 1 -0 -1 -1 -1 -1 -1 -0 -0 -1 -1 -1 -1 -1 0 -0 -2 -2 -1 -1 -2 -3 -3 -2 -3 -2 -1 -0 -1 -1 -1 -1 0 1 1 0 1 1 1 1 1 1 1 2 2 2 1 1 1 1 1 1 1 0 0 1 nan
nan -1 -0 -0 -1 -1 -1 0 1 -0 -0 -0 -0 -0 0 1 1 -0 -1 -1 -1 -1 -1 -1 -1 -0 -1 -1 -1 -1 -1 0 0 -1 -2 -2 -1 -2 -3 -3 -2 -2 -2 -1 -0 -0 -0 -0 0 1 1 0 0 1 1 1 2 1 1 1 1 2 1 1 1 1 1 1 0 0 1 1 1 nan
nan -1 -0 -0 -1 -1 -1 -0 0 0 -0 -0 -0 0 0 1 0 -0 -1 -0 -1 -1 -0 -1 -1 0 -0 -1 -1 -1 -1 -0 0 -0 -1 -2 -2 -2 -3 -3 -2 -2 -1 -0 0 1 0 1 1 2 1 0 1 1 1 2 2 1 1 1 2 2 1 0 0 0 1 1 1 1 1 1 0 nan
nan -0 -1 -1 -0 -0 -1 -1 -0 -0 -0 -0 -0 -0 -0 0 0 0 0 0 -0 -0 -0 -0 0 0 -0 -1 -1 -1 -1 -1 -1 -1 -1 -2 -2 -2 -2 -2 -2 -2 -1 0 1 1 1 1 1 1 0 0 1 1 2 2 1 0 1 1 2 2 1 0 0 0 0 1 1 1 0 0 0 nan
nan -0 -0 -1 -1 -0 -1 -1 -1 -1 -0 -0 -0 -0 0 0 0 1 1 -0 -1 -0 0 1 1 0 -0 -1 -0 -0 -0 -1 -1 -1 -1 -1 -2 -2 -2 -2 -2 -1 -1 0 1 1 1 1 1 1 1 1 1 1 1 1 1 0 1 1 1 1 1 1 1 0 0 0 0 0 0 0 0 nan
nan -0 -0 -1 -1 -1 -1 -1 -1 -1 -1 -1 -1 -0 -0 0 0 0 0 -0 -0 0 1 1 1 1 -0 -0 -0 -0 -0 -1 -1 -1 -1 -1 -2 -2 -2 -1 -1 -1 -0 0 1 1 1 1 1 1 2 2 2 1 1 0 0 0 1 2 1 0 0 1 1 0 0 0 0 -0 0 0 0 nan
nan -0 -0 -1 -1 -0 -1 -1 -1 -1 -1 -1 -1 -0 -0 -0 0 -0 -0 -0 1 1 1 1 1 1 -0 -0 -1 -1 -1 -1 -1 -1 -0 -1 -2 -2 -2 -1 -1 -1 -0 0 0 0 1 1 1 1 1 2 1 1 1 0 0 0 1 1 1 1 1 1 1 0 0 0 0 0 0 0 0 nan
nan -0 -0 -0 -1 -0 -0 -1 -1 -1 -0 -0 -0 -0 -0 -0 0 -0 -0 0 1 1 0 1 1 0 -0 -1 -2 -2 -1 -1 -1 -1 -0 -1 -2 -2 -1 -1 -1 -1 0 1 0 1 1 1 1 0 -1 -0 1 1 1 1 1 1 1 0 1 1 1 0 0 0 0 0 0 0 0 -0 -0 nan
nan -1 -0 -0 -0 -0 -1 -1 -1 -1 -1 -0 -0 -0 -0 0 0 0 0 1 0 -0 -0 1 0 0 -0 -1 -2 -2 -1 -1 -1 -0 -1 -2 -2 -1 -1 -0 -0 -0 1 1 1 2 2 1 1 1 -1 -3 -2 -1 -0 1 2 2 2 1 -0 0 1 0 -0 0 0 0 0 0 0 -0 -0 nan
nan -1 -1 -1 -1 -0 -0 -1 -1 -1 -1 -1 -0 -0 -0 0 0 0 1 0 0 -0 0 0 -0 -0 -0 -1 -1 -1 -1 -1 -1 -0 -1 -1 -1 -1 -1 -0 -0 0 1 2 2 2 2 1 1 1 -0 -3 -4 -4 -3 -1 1 2 2 2 0 -1 -0 0 -0 0 0 0 0 0 -0 -0 0 nan
nan -0 -0 -0 -0 -0 -0 -0 -1 -1 -1 -1 -0 -0 -0 -0 0 0 0 0 0 0 0 -0 -0 -0 -0 -1 -1 -1 -1 -1 -1 -0 -1 -1 -1 -2 -1 -0 0 1 2 2 2 2 2 2 2 2 1 -1 -1 -1 -2 -2 -1 0 1 2 1 -0 -1 -0 -0 -0 0 -0 -0 -0 -0 0 0 nan
nan -0 0 -0 -0 -0 -0 -0 -1 -1 -1 -1 -1 -0 -0 -0 -0 0 0 0 0 0 0 -0 -0 -0 -0 -1 -1 -1 -1 -0 -0 -0 -0 -1 -1 -1 -0 0 1 1 1 1 1 1 1 1 1 1 1 1 2 2 0 -1 -1 -0 0 1 1 1 0 -0 -0 -1 -1 -1 -1 -0 -0 0 0 nan
nan -0 0 -0 -0 -0 -1 -1 -1 -1 -1 -1 -1 -1 -0 -0 -0 0 0 0 0 0 0 -0 -0 -0 -0 -0 -0 -0 -0 -0 -0 -0 -0 -1 -1 -0 0 1 1 1 1 1 1 1 0 1 1 1 1 2 2 1 0 -1 -1 0 0 0 1 1 1 1 0 -0 -1 -1 -0 -0 -0 -0 0 nan
nan -0 -0 -0 -0 -0 -1 -1 -1 -1 -1 -1 -1 -1 -1 -1 -0 -0 0 0 0 0 0 -0 -0 -0 -0 -0 -0 -0 -0 -1 -1 -0 -1 -1 -1 0 1 1 1 2 1 1 1 1 1 1 1 1 2 2 2 -0 -1 -1 -0 -0 0 0 1 1 1 1 0 0 0 0 0 0 -0 0 0 nan
nan -0 -0 -0 -0 -0 -0 -1 -1 -1 -1 -1 -1 -1 -1 -1 -1 -0 -0 -0 0 0 0 -0 -0 -0 -0 -0 -0 -1 -1 -1 -0 -0 -1 -1 0 1 1 2 2 2 1 1 1 1 1 1 1 1 1 2 2 -0 -2 -1 -0 0 0 0 0 0 0 0 1 1 1 0 0 0 0 0 0 nan
nan -0 -0 -0 -0 -0 -0 -0 -0 -1 -1 -1 -1 -0 -0 -1 -1 -0 -0 -0 -0 -0 -0 -0 -0 -0 -0 -1 -1 -1 -1 -0 -0 -0 -0 0 1 1 1 0 1 1 1 1 0 0 1 0 0 1 0 1 1 1 -1 -2 -0 0 -0 -0 -0 0 0 0 0 0 0 0 0 0 0 0 0 nan
nan nan nan nan nan nan nan nan nan nan nan nan nan nan nan nan nan nan nan nan nan nan nan nan nan nan nan nan nan nan nan nan nan nan nan nan nan nan nan nan nan nan nan nan nan nan nan nan nan nan nan nan nan nan nan nan nan nan nan nan nan nan nan nan nan nan nan nan nan nan nan nan nan nan
Wind_Speed
12 13 14 15 16 16 16 17 18 19 20 22 23 23 22 21 23 25 26 29 29 27 27 26 24 20 19 19 21 22 23 24 26 27 27 27 27 27 28 27 26 26 27 26 25 24 23 22 23 23 24 25 27 28 27 26 25 24 23 21 18 18 17 16 14 12 12 10 9 9 10 11 12 12
14 14 14 15 16 16 15 15 16 17 18 20 21 22 22 22 22 23 24 29 31 30 30 30 28 25 21 19 20 21 21 21 23 26 28 29 28 27 28 28 26 25 27 28 26 25 24 24 24 25 25 26 26 27 28 29 27 25 25 23 20 19 18 17 15 14 12 11 10 10 11 12 13 13
14 15 16 16 16 15 15 15 15 17 18 19 20 21 22 22 23 22 23 27 30 29 29 30 30 29 27 24 22 22 21 21 23 25 26 27 26 25 25 26 26 26 27 28 28 27 25 25 26 26 26 27 28 27 27 29 29 27 26 25 22 20 20 18 17 15 14 12 11 11 11 12 13 14
16 16 16 17 17 16 16 16 15 16 17 19 20 21 22 22 23 22 22 25 29 29 27 27 28 28 28 27 26 25 24 23 24 25 25 25 26 26 26 26 25 25 27 29 30 29 28 27 27 27 27 27 28 28 26 28 30 29 27 26 24 21 21 20 19 18 16 14 13 12 12 13 14 14
18 18 17 17 17 18 18 18 17 17 17 18 20 21 22 23 23 23 23 24 28 30 28 25 25 24 23 25 26 26 26 25 24 24 24 26 28 28 28 28 27 26 27 29 31 31 30 29 29 29 28 28 28 28 26 27 30 30 27 27 26 23 22 21 20 20 18 16 15 14 14 15 15 14
21 21 20 19 18 19 20 21 20 20 19 19 19 20 22 23 24 23 24 25 26 30 30 27 26 23 21 23 24 24 25 26 25 25 25 25 26 27 27 27 27 27 27 28 31 32 31 30 31 31 29 28 28 28 26 27 31 32 29 27 27 25 24 23 22 22 21 19 17 16 16 16 15 14
24 24 23 23 21 21 22 23 23 22 22 21 20 21 21 23 24 24 23 24 25 28 30 28 26 22 20 21 23 23 25 26 26 26 25 24 24 24 25 24 24 26 26 27 29 30 31 31 32 32 31 29 29 29 27 27 30 32 31 28 28 27 26 25 23 23 23 21 20 19 18 17 15 15
26 26 26 26 25 25 25 24 24 25 25 24 22 22 22 22 24 25 24 24 24 26 29 30 27 23 20 19 19 21 23 25 25 26 26 26 24 23 23 23 23 25 27 29 29 28 30 31 32 33 33 31 30 30 28 28 29 31 31 30 29 29 28 26 25 26 26 24 23 21 20 18 17 17
28 29 29 29 28 27 27 26 26 26 26 26 26 25 24 23 23 24 25 25 25 26 29 31 31 27 24 21 19 19 20 22 24 25 24 25 25 24 23 23 23 25 28 31 31 30 29 31 33 35 35 33 32 31 29 28 29 31 31 30 30 31 30 28 27 28 28 26 25 23 22 20 19 18
31 31 32 32 31 30 30 29 28 28 27 28 28 28 28 27 26 25 25 26 26 28 30 32 34 33 30 27 24 21 19 19 21 24 25 25 25 25 25 24 24 25 26 29 31 30 30 31 34 36 36 34 33 33 31 29 29 31 32 31 30 32 32 31 30 30 30 28 26 25 23 22 20 18
33 33 33 32 32 32 33 32 31 31 30 30 30 31 31 30 29 29 28 27 27 28 30 32 35 36 34 32 29 25 21 19 18 21 25 27 27 26 27 26 26 26 26 26 28 30 30 31 32 37 38 36 35 36 34 31 29 31 33 32 31 33 34 33 33 32 31 30 28 26 24 23 21 19
35 35 33 32 32 33 34 35 35 35 34 34 34 33 33 32 32 32 31 31 30 30 30 32 34 36 36 35 33 29 25 22 20 18 21 25 26 27 28 28 28 27 27 26 27 29 30 31 32 36 40 39 37 38 37 34 31 31 33 34 34 34 35 35 35 34 32 31 29 26 24 23 22 20
37 36 35 33 32 33 34 35 36 37 37 37 37 36 35 35 35 36 35 35 34 33 32 33 34 36 37 36 35 33 30 27 25 22 20 22 23 25 29 30 29 27 27 27 27 28 29 30 33 36 41 41 39 40 40 38 36 33 32 34 35 35 35 36 36 35 33 32 28 25 24 23 22 20
39 37 36 34 33 33 34 34 35 36 37 38 39 39 38 38 38 38 39 39 38 36 36 35 34 36 38 38 35 35 33 31 30 29 27 25 23 24 28 31 29 27 27 28 28 28 29 30 31 34 39 42 41 41 41 42 42 39 34 33 35 36 36 37 37 36 35 32 28 25 24 23 22 19
40 39 38 36 35 34 34 35 36 36 36 37 37 38 39 40 40 40 40 41 41 40 40 39 37 37 39 39 37 36 35 33 32 32 31 30 27 25 27 31 31 28 27 29 30 30 30 30 31 33 36 39 40 41 42 43 45 45 39 34 34 36 37 38 38 37 36 32 28 26 25 24 22 19
40 40 39 38 37 37 36 36 37 37 38 38 37 37 37 39 40 40 41 42 42 42 42 42 42 41 40 39 38 37 36 35 34 33 32 32 30 27 26 28 30 29 30 32 32 31 30 30 32 33 34 37 38 40 43 44 47 50 45 37 35 38 38 39 39 39 37 33 29 28 26 26 24 20
39 39 40 40 40 39 38 38 38 38 38 39 39 39 39 39 39 40 40 41 42 43 43 44 45 45 42 41 40 38 36 35 34 33 33 31 29 28 27 26 27 28 30 33 34 32 31 31 33 33 33 35 37 39 43 46 50 53 49 41 39 40 40 40 40 39 38 34 31 29 28 27 24 19
38 39 39 40 41 40 40 39 38 38 38 38 39 40 40 40 40 39 40 40 41 42 43 46 48 47 45 44 43 40 38 36 34 32 32 32 30 29 27 26 26 25 27 31 34 34 33 32 33 32 31 33 36 38 42 46 51 52 49 45 43 42 40 39 39 39 38 35 32 30 29 28 23 18
38 38 38 40 41 41 41 40 39 39 39 39 40 40 41 41 40 40 40 39 39 40 42 45 47 48 48 47 46 44 41 40 38 35 33 32 32 31 30 29 28 26 25 28 31 33 33 32 32 32 30 31 34 36 39 44 48 50 49 47 45 42 40 39 39 38 37 34 32 30 29 27 22 18
38 38 38 39 40 41 41 41 40 40 40 40 42 42 42 42 41 41 40 39 39 39 40 42 44 46 47 47 47 46 44 43 42 39 36 34 32 32 33 35 35 33 29 29 29 30 30 30 31 31 31 31 34 36 38 41 46 48 48 46 44 42 41 40 39 38 35 33 31 29 28 25 21 18
39 38 38 39 40 42 42 41 41 40 40 41 43 43 44 43 43 43 41 39 39 39 39 40 41 41 43 44 45 47 47 46 43 41 41 39 34 32 34 36 39 38 34 30 28 28 28 28 29 31 32 33 34 35 38 41 43 46 46 45 44 42 41 40 38 36 34 32 30 28 26 23 20 18
40 40 40 39 40 42 42 41 41 40 40 41 43 43 44 44 45 44 41 40 40 39 39 39 39 39 39 40 41 44 46 46 43 43 46 44 37 35 36 37 38 39 37 31 28 30 31 30 30 30 31 32 33 34 36 38 41 44 46 45 44 42 40 39 37 34 32 31 29 27 25 22 20 19
41 41 41 40 40 41 41 40 39 38 38 41 43 42 43 45 47 45 42 41 41 40 39 39 38 39 39 38 38 39 41 42 42 43 46 46 42 39 38 37 36 38 39 36 33 33 34 32 31 31 30 30 31 32 33 35 38 41 44 44 44 41 39 38 37 35 33 30 28 26 24 22 20 18
42 42 42 42 41 41 41 40 39 38 37 39 41 42 43 46 48 45 42 41 40 39 39 38 37 38 38 37 37 37 36 38 39 40 41 41 42 43 41 39 38 39 41 38 34 33 33 32 32 32 31 30 30 30 31 31 34 38 40 41 41 40 39 39 38 36 33 29 27 25 24 22 20 17
42 42 42 42 41 40 40 40 40 39 38 37 39 42 44 46 45 43 42 41 39 38 38 37 37 37 36 36 37 36 36 35 36 35 34 34 37 41 42 41 40 40 42 40 35 33 32 31 31 31 31 32 32 32 31 30 31 33 35 36 37 37 38 39 38 35 32 29 26 24 22 20 18 15
41 41 41 41 41 40 40 39 39 39 38 37 39 41 42 42 42 41 41 41 39 39 39 38 38 38 37 36 36 37 37 36 35 34 34 34 36 38 41 41 40 40 41 39 36 34 33 33 32 32 32 32 33 33 34 32 30 30 30 31 32 33 34 36 36 33 30 26 24 23 21 19 16 15
41 41 42 42 41 41 40 40 39 39 38 38 39 40 40 40 40 40 40 40 39 40 40 40 40 40 39 38 38 38 38 38 37 36 36 36 37 38 40 41 40 39 39 37 35 35 34 33 32 32 32 33 33 33 33 32 31 29 28 28 30 30 30 31 31 29 26 25 24 23 21 19 18 17
41 42 43 42 42 41 40 40 39 38 38 38 39 39 39 39 38 38 38 38 38 38 39 41 42 42 41 40 39 39 39 38 37 36 36 35 36 37 40 40 40 39 37 36 36 35 34 34 33 32 32 33 33 33 33 32 30 28 26 25 26 27 27 27 26 26 25 25 24 23 23 22 20 17
41 41 41 41 40 38 37 37 36 36 36 37 37 37 37 37 37 37 38 39 39 40 41 42 44 43 42 41 40 39 38 37 35 34 34 34 34 36 38 40 41 39 35 35 36 36 35 35 33 33 34 33 31 31 32 31 29 26 24 22 23 24 25 25 25 25 25 25 25 25 23 20 17 14
39 39 39 38 37 36 35 35 35 35 35 35 35 35 35 35 37 38 39 40 42 44 45 45 45 44 42 40 40 39 37 36 35 33 33 33 33 34 35 39 42 38 33 34 36 37 37 37 36 37 36 33 30 31 31 29 27 24 21 19 20 22 25 27 26 26 27 27 27 24 21 17 14 12
37 37 37 36 36 35 35 34 34 34 34 34 34 34 34 35 36 38 40 41 43 45 46 46 45 44 42 40 39 39 37 36 35 33 31 31 32 32 33 37 41 36 31 32 35 36 37 39 40 39 36 32 30 30 28 27 25 23 20 18 20 22 26 31 31 29 29 27 24 21 18 15 12 9
35 35 35 35 34 34 33 33 32 31 31 30 30 31 31 32 34 35 37 39 41 42 43 44 43 42 41 40 40 39 37 36 34 32 30 30 30 30 31 35 38 34 29 29 30 32 34 36 35 34 32 29 27 26 26 24 22 19 18 20 22 25 27 32 32 29 26 24 21 18 16 12 9 7
32 32 32 31 31 30 29 30 30 29 28 28 28 28 28 29 30 32 33 36 38 39 39 41 41 40 39 39 39 38 36 35 33 30 29 28 28 28 31 34 36 32 27 27 29 30 31 31 30 28 26 25 22 20 21 21 19 18 19 23 28 29 26 27 28 26 24 22 19 16 14 11 10 9
27 27 27 27 27 27 27 28 28 28 27 27 28 28 28 28 28 29 30 32 34 35 36 37 38 38 38 39 38 37 35 34 31 28 27 26 27 28 30 33 32 29 26 27 29 31 31 31 30 27 25 24 21 17 16 17 18 20 23 26 29 29 25 23 25 24 21 19 17 15 14 13 11 10
23 24 25 26 26 26 27 28 28 27 26 27 28 28 28 27 26 26 28 29 30 31 33 34 35 37 38 39 39 36 34 32 28 25 25 25 27 29 31 31 30 27 27 29 31 32 33 33 33 31 28 24 21 19 16 15 18 22 27 28 28 27 25 24 23 22 20 17 16 15 15 14 12 12
23 24 25 27 27 27 28 28 27 26 25 25 26 26 26 25 24 24 25 26 26 28 29 30 32 34 36 38 38 35 32 29 26 25 26 27 27 29 31 30 29 28 29 31 33 34 34 35 36 35 32 29 26 24 22 19 19 22 26 29 28 26 26 26 24 21 20 18 16 15 14 13 13 12
25 26 26 27 27 27 28 28 27 26 25 24 24 23 22 21 21 20 20 20 22 24 26 27 29 31 32 35 35 33 30 27 26 26 27 27 27 28 29 29 29 30 32 33 34 35 35 36 37 37 35 34 33 31 28 26 24 22 24 28 29 28 27 26 24 22 20 17 16 15 13 12 12 12
27 28 27 28 28 28 28 28 27 26 25 23 21 20 18 17 16 16 16 17 19 21 22 25 27 28 29 30 30 29 28 27 26 26 27 26 26 28 29 30 31 32 34 34 35 35 35 35 36 37 37 35 35 36 35 33 30 24 22 24 26 27 26 25 24 23 20 18 17 16 14 12 12 12
29 29 29 29 29 29 29 28 28 27 25 22 20 17 16 14 14 14 15 16 17 17 19 22 24 25 26 26 26 27 27 26 25 24 25 26 27 29 30 30 32 34 35 35 34 34 35 36 37 38 37 34 33 37 40 38 33 27 23 21 21 23 24 24 22 22 21 20 19 18 16 13 12 12
31 30 30 30 30 30 30 29 28 27 25 22 18 15 13 12 12 13 15 16 17 17 17 19 21 22 22 23 25 25 25 23 22 21 23 26 28 28 29 31 33 34 34 35 36 36 36 36 36 37 36 33 32 35 38 37 33 29 26 23 19 17 18 19 20 21 22 21 19 16 15 14 12 12
32 33 32 32 31 31 30 30 29 27 25 21 18 15 12 10 10 10 12 14 16 16 17 18 19 21 22 22 22 22 22 22 21 20 22 26 27 28 29 31 33 34 34 36 37 37 36 35 36 37 35 32 33 37 38 37 34 30 27 25 22 18 17 16 14 14 15 17 16 15 14 13 12 11
33 34 34 33 32 31 30 29 29 27 25 22 19 17 14 12 11 9 8 9 12 15 16 16 18 21 23 23 22 22 22 21 20 20 23 26 28 29 30 32 33 34 35 36 37 37 36 36 37 35 31 30 35 39 38 37 35 32 28 26 24 22 20 17 13 10 10 12 12 12 12 12 11 11
33 34 34 34 33 32 31 30 28 26 25 23 20 18 16 15 14 12 8 4 6 9 12 15 17 20 23 23 22 22 21 19 19 21 25 28 28 29 31 32 34 35 37 38 39 38 36 35 34 31 29 32 36 36 36 36 35 33 30 28 26 24 22 19 17 15 13 12 10 8 8 8 9 9
34 34 34 34 33 32 31 30 28 26 24 22 20 17 15 15 14 12 9 7 3 3 7 11 14 17 19 19 19 19 19 19 21 23 25 27 28 29 32 34 36 37 38 39 39 37 34 32 30 29 31 35 35 34 35 37 35 32 31 29 27 27 25 23 21 19 16 14 12 10 8 8 7 6
34 34 34 34 33 32 31 31 29 27 24 22 19 17 14 13 13 11 8 6 4 1 4 8 12 16 17 18 19 20 20 21 23 24 26 28 30 32 34 37 38 39 39 39 39 37 34 32 30 29 30 33 32 31 35 37 35 33 32 30 29 28 26 24 22 20 18 16 14 11 10 9 8 8
Wind_Direction
291 283 279 278 279 281 279 274 268 264 262 262 263 266 269 276 284 289 289 287 283 279 282 287 289 290 292 288 280 276 276 273 271 269 267 268 271 276 275 267 260 261 262 262 263 264 261 256 251 249 249 250 253 253 248 240 237 237 234 232 238 248 254 259 261 267 277 286 296 300 304 309 312 316
299 291 283 278 278 281 281 276 269 265 264 263 260 261 263 267 273 280 284 285 282 278 278 280 284 287 289 290 283 276 275 275 272 268 266 267 268 270 270 264 257 256 260 262 262 262 262 259 255 253 252 251 251 251 248 244 238 237 236 233 237 246 252 255 258 262 269 278 288 294 298 303 309 312
304 298 292 285 279 278 279 277 272 265 262 263 262 260 259 261 266 271 278 284 284 282 282 280 279 281 283 283 280 273 269 267 265 265 265 265 263 262 262 261 258 255 257 261 261 261 262 261 257 255 254 252 252 251 249 245 238 235 236 235 236 244 250 253 255 258 263 270 278 285 290 298 303 306
310 302 296 290 285 281 279 277 275 270 263 261 261 261 259 258 260 265 271 278 281 282 286 286 280 277 278 279 277 275 274 271 268 267 266 263 259 254 253 255 257 255 256 260 261 261 262 261 257 256 254 253 253 252 251 245 236 232 234 235 237 242 248 252 254 255 259 265 271 276 284 291 295 298
314 309 301 294 288 284 281 279 277 275 270 264 260 259 261 260 259 263 267 274 277 275 278 286 285 278 276 276 275 276 277 276 275 274 271 266 262 258 254 255 256 256 257 259 261 262 262 258 256 255 254 253 253 253 251 242 234 231 232 234 238 242 248 252 253 255 257 260 264 270 276 281 285 291
313 310 306 300 294 287 282 279 278 277 276 273 268 261 260 261 260 262 266 272 276 273 272 280 287 285 282 278 274 275 277 275 275 274 272 271 268 264 263 264 262 258 258 260 261 262 260 255 252 253 253 252 252 253 251 242 234 231 231 232 236 240 246 251 253 255 257 258 260 265 269 272 277 284
312 310 306 303 300 295 287 281 278 278 277 277 276 271 264 262 260 260 264 270 276 275 271 273 281 287 288 285 278 275 275 274 272 270 269 271 270 266 264 264 260 255 256 261 264 263 260 253 249 249 251 250 250 251 250 243 234 230 231 231 233 237 242 248 253 256 257 257 257 260 263 267 271 276
309 307 304 302 301 298 294 288 283 280 278 277 277 276 273 269 264 260 261 265 270 274 271 268 271 277 282 284 283 279 275 271 269 268 265 266 269 268 266 263 259 256 254 257 261 263 260 255 248 246 249 249 247 248 249 244 236 231 231 231 232 236 240 245 252 256 257 257 258 259 262 264 267 272
302 301 299 296 295 294 292 291 289 285 281 278 276 276 275 274 271 266 262 262 263 268 269 266 266 268 270 273 277 280 279 274 270 268 265 264 265 267 267 267 264 260 256 253 255 257 258 254 247 243 245 247 244 244 246 244 237 231 232 232 232 235 239 242 248 253 256 258 260 262 263 263 265 271
299 298 296 291 287 284 284 285 286 285 284 280 277 275 274 273 273 271 267 265 263 264 266 265 265 266 268 270 271 274 281 280 274 272 271 267 263 263 264 265 266 264 261 258 256 255 255 254 246 240 242 245 243 240 242 242 238 233 232 234 234 236 238 241 245 250 254 258 260 261 264 265 265 269
299 298 297 292 285 279 277 277 279 280 280 279 277 275 273 272 272 271 270 268 266 266 266 265 263 264 267 270 270 271 276 279 279 278 274 268 264 263 264 266 269 268 265 262 260 257 255 257 251 241 240 244 242 238 238 239 238 235 233 233 234 236 238 242 245 248 252 256 258 259 264 268 267 266
300 299 298 295 289 281 276 273 273 274 275 276 276 275 274 272 270 270 270 269 268 268 268 266 263 263 265 267 268 268 269 272 277 281 281 277 273 272 271 271 270 268 266 263 262 260 258 259 254 242 239 242 242 238 238 238 238 237 235 234 234 236 239 243 246 248 251 254 256 259 264 270 271 268
299 298 297 295 291 286 280 275 272 271 270 271 272 273 273 273 271 269 268 268 268 268 268 266 264 263 263 265 267 267 265 266 271 277 285 286 283 282 279 275 270 268 267 264 261 260 260 261 258 246 240 241 240 237 237 239 238 236 235 235 236 238 240 242 245 248 252 255 256 258 263 269 271 270
298 297 296 294 290 287 283 280 276 273 270 269 268 269 269 270 270 269 267 266 266 267 267 266 265 264 263 263 265 266 265 264 266 271 277 281 283 286 285 280 274 269 266 264 260 258 259 260 259 252 245 245 242 237 236 239 239 236 233 233 235 238 241 242 244 248 251 255 256 257 262 267 268 268
298 297 296 294 291 287 284 281 279 277 275 272 269 267 265 265 266 267 267 266 265 265 266 266 265 264 263 262 263 265 265 264 264 266 271 275 279 285 288 284 279 275 272 268 263 260 261 262 260 255 250 248 247 243 240 240 240 238 234 233 234 236 240 243 245 247 250 254 256 255 259 264 264 264
297 296 295 294 292 290 287 284 281 279 277 275 273 270 266 263 262 261 262 263 264 264 265 265 264 262 263 262 262 263 265 265 264 264 266 270 275 279 283 283 281 281 279 274 268 264 263 263 262 259 254 250 250 249 247 244 242 240 236 234 236 237 239 242 243 244 247 251 253 254 257 262 263 262
294 294 294 293 291 290 289 287 284 281 279 277 275 273 271 267 264 261 260 259 259 261 262 263 263 262 262 262 262 263 266 266 265 264 263 265 269 273 277 280 282 283 279 273 269 267 265 263 263 262 259 255 252 251 251 249 245 242 237 237 239 238 238 241 242 243 246 250 251 252 256 261 263 261
293 292 292 290 289 288 287 286 285 283 281 279 276 274 272 270 268 266 264 261 258 257 257 259 260 261 261 262 262 262 263 264 263 262 261 262 263 266 270 276 279 279 278 274 268 264 263 262 263 265 263 259 255 253 253 253 249 245 241 239 240 238 237 240 242 243 246 248 249 251 256 259 260 257
292 291 290 288 287 286 285 284 283 283 282 281 279 276 274 273 271 269 267 265 263 259 256 256 257 258 259 260 260 260 260 261 261 260 259 259 261 261 262 265 268 270 275 275 268 263 262 262 264 268 268 263 258 255 255 255 252 247 242 240 239 236 235 237 239 241 243 245 248 252 255 258 258 254
291 290 288 287 285 284 283 282 281 281 281 281 280 278 277 276 274 271 269 268 267 263 260 258 256 257 257 257 258 258 258 258 258 258 257 255 255 259 260 261 262 263 267 271 269 266 266 266 268 271 269 263 259 256 255 255 252 248 244 240 237 235 234 235 236 236 239 243 247 251 254 256 256 250
293 290 288 285 284 283 282 282 281 280 279 279 279 279 279 278 276 273 272 271 270 268 265 262 259 257 256 255 255 255 255 255 255 256 256 252 249 252 256 258 260 261 262 263 266 266 267 269 270 270 267 264 260 257 256 255 253 249 244 239 236 233 232 234 235 235 238 242 244 248 251 252 250 246
296 293 290 287 285 283 283 282 281 279 277 276 276 277 277 277 276 275 275 274 273 272 270 266 263 259 256 255 253 252 253 254 253 253 253 252 250 249 252 254 258 260 259 256 257 261 263 266 268 266 263 263 262 260 259 258 255 250 245 239 235 232 230 231 233 234 236 238 241 245 248 247 246 244
298 295 293 291 288 286 285 284 282 279 276 273 273 273 273 273 273 274 276 276 276 277 275 271 267 262 259 256 254 252 251 251 251 251 251 251 249 247 249 251 253 256 256 252 251 255 259 264 266 263 260 259 260 261 261 259 256 252 247 243 238 233 230 230 231 231 232 235 240 244 245 246 245 240
299 296 294 292 291 290 289 288 285 281 276 272 270 268 267 267 270 272 274 274 274 276 276 274 270 266 262 259 256 254 251 248 249 250 251 250 247 246 247 248 248 251 254 254 253 254 258 262 264 263 260 256 257 261 262 260 257 253 249 246 241 237 233 229 228 228 230 234 238 241 244 245 239 230
299 297 295 295 295 294 293 291 288 284 280 275 270 266 264 265 267 269 270 269 269 270 271 272 271 267 263 260 258 255 253 249 247 247 245 242 240 241 242 244 247 251 254 256 257 255 255 257 260 261 258 254 255 259 261 260 258 254 251 248 243 238 233 229 226 227 228 231 235 238 239 235 225 218
299 298 298 297 297 296 294 292 289 286 283 278 272 268 266 265 265 265 265 265 264 264 265 267 267 265 261 258 257 256 254 251 247 244 239 233 232 234 236 239 244 249 253 257 258 256 253 253 256 258 257 255 254 256 257 257 256 254 251 248 244 238 232 228 226 226 227 230 233 233 228 220 212 212
299 299 298 298 297 296 294 292 289 285 283 279 274 271 268 266 265 264 264 264 262 261 261 261 262 261 258 255 254 254 254 253 251 248 242 236 233 231 232 235 239 246 252 255 255 254 253 252 255 259 260 258 254 252 253 255 255 254 252 249 244 235 227 224 225 227 228 228 227 222 212 205 204 209
300 299 299 298 297 295 292 289 287 283 280 277 274 272 270 268 266 264 263 261 261 260 258 257 258 257 255 253 252 253 255 257 258 255 249 243 238 233 231 231 234 240 247 247 246 247 250 251 254 258 261 260 257 256 256 255 256 256 252 247 240 230 222 218 219 221 222 221 216 208 202 202 205 209
301 300 300 299 297 295 293 291 289 286 283 279 277 274 271 268 265 262 260 259 257 257 256 255 255 255 253 252 252 253 256 258 260 259 253 247 240 235 231 229 230 236 241 240 240 243 246 247 249 253 256 257 257 257 256 254 254 255 252 246 236 224 214 207 208 212 213 209 203 199 201 204 206 208
304 303 303 301 300 299 297 295 293 290 288 286 282 277 272 267 262 259 257 256 255 254 255 254 253 253 253 252 252 253 254 256 257 256 253 248 241 235 230 227 228 233 237 235 235 238 241 243 246 249 251 251 253 253 253 252 250 248 245 240 229 214 201 195 199 203 202 200 199 201 202 199 193 197
307 306 304 303 303 302 301 298 296 294 291 287 283 279 274 269 264 260 257 255 255 255 255 256 255 253 252 250 250 250 251 253 255 253 251 248 242 234 229 226 228 233 236 233 231 234 238 241 245 247 247 246 246 247 247 248 247 242 237 229 220 209 196 192 195 198 197 199 201 198 191 183 181 191
307 305 305 306 305 305 304 302 299 297 293 290 286 282 278 273 269 264 260 257 256 255 255 256 255 251 248 247 247 248 249 252 253 249 246 245 241 233 226 224 227 232 234 234 233 233 235 238 241 244 244 243 243 243 240 236 234 235 230 215 204 200 197 195 195 195 194 195 191 181 173 171 177 194
306 305 306 307 307 307 308 307 305 302 299 295 291 287 283 278 273 267 262 258 254 252 251 252 251 247 243 243 245 246 247 249 248 244 241 240 236 229 224 223 227 231 234 235 234 230 228 229 230 231 231 230 232 236 236 230 221 218 217 205 192 191 195 196 195 193 189 184 175 165 165 171 183 200
307 309 311 313 314 316 316 315 312 309 305 301 297 294 291 285 278 271 266 261 256 252 250 249 248 244 239 238 240 243 246 247 245 240 237 235 229 222 220 223 227 231 234 235 231 225 222 220 216 212 212 212 211 213 224 230 217 202 199 196 190 188 189 190 188 183 178 173 166 162 170 182 193 204
319 323 324 324 324 325 323 321 318 314 310 305 302 299 294 287 279 272 266 261 257 254 250 248 247 243 238 235 237 240 243 244 241 235 233 231 224 217 217 223 227 228 229 230 227 223 220 215 207 198 193 193 191 185 191 212 215 198 188 186 186 185 180 175 172 167 163 164 168 171 179 189 197 202
336 336 334 332 331 330 328 325 323 319 315 311 307 302 296 287 279 272 266 261 258 254 249 247 245 242 237 235 235 237 239 239 235 231 229 226 219 213 215 222 228 227 226 226 224 220 216 212 205 196 185 178 175 172 172 185 202 201 189 180 175 172 166 160 158 160 163 166 174 181 188 195 199 202
345 344 342 338 337 334 331 329 327 324 321 318 312 305 297 289 283 278 272 264 257 251 248 246 245 242 238 234 233 234 233 229 226 227 227 222 216 212 214 221 225 223 222 221 219 215 210 205 201 196 185 173 166 164 163 168 180 189 188 179 168 160 158 157 158 164 168 170 177 189 200 207 208 209
351 348 346 344 342 339 336 335 333 330 328 324 318 309 300 293 290 287 279 266 255 248 245 245 244 241 238 234 230 228 224 220 222 226 226 222 218 216 215 217 217 216 214 211 208 207 206 201 198 197 192 182 173 167 164 163 165 168 175 176 166 155 154 159 163 165 168 173 180 191 204 213 215 218
355 352 350 347 346 344 342 340 338 335 332 329 324 316 307 299 292 287 279 268 258 249 244 241 238 237 235 230 224 219 216 217 223 227 226 223 221 217 215 214 212 208 204 200 197 196 196 195 193 192 194 195 191 181 170 162 156 153 154 159 157 152 155 162 165 164 167 174 181 187 195 203 212 221
357 356 354 352 351 349 346 344 342 339 336 333 329 321 312 303 293 285 277 270 264 256 246 238 232 229 226 222 218 215 216 219 226 230 227 223 220 216 214 212 208 203 198 193 189 188 188 188 188 188 192 195 191 177 162 150 144 145 146 149 152 154 156 160 163 165 171 178 186 192 197 202 210 218
359 359 358 357 355 353 350 347 344 342 340 338 334 329 323 315 306 295 283 273 266 258 248 237 228 222 219 217 217 218 221 225 229 230 226 219 213 211 210 207 202 198 194 189 185 182 182 184 186 189 192 189 175 161 150 142 142 147 151 153 157 159 160 163 167 175 182 188 193 196 199 203 208 211
1 0 360 359 358 356 353 350 346 345 344 342 340 339 338 337 334 326 304 273 257 249 242 234 226 220 218 218 220 224 227 229 229 225 218 212 206 202 202 200 196 192 189 185 180 178 179 182 185 187 185 176 165 156 149 144 146 150 153 156 158 161 166 172 183 194 199 199 199 200 200 201 203 204
4 3 1 360 358 358 357 354 351 347 346 345 345 344 344 345 346 343 333 299 250 233 227 224 222 221 219 218 221 225 225 224 220 214 210 207 204 197 193 190 188 185 182 177 173 172 173 176 179 178 171 165 164 160 151 145 146 149 152 156 159 161 163 169 176 181 181 180 185 196 202 203 204 205
7 6 4 2 360 359 359 357 355 353 350 348 349 350 348 350 351 348 343 341 334 227 210 211 214 215 214 212 212 213 214 212 211 207 203 201 198 192 185 181 177 176 174 170 165 163 164 167 169 170 165 162 163 160 150 145 147 149 151 154 157 159 161 164 167 168 167 163 166 177 187 190 189 184
10 9 7 4 2 1 1 359 359 358 355 354 355 356 354 354 355 354 350 347 345 314 195 197 199 199 199 198 198 200 201 200 200 198 194 189 185 181 178 175 172 169 167 165 159 155 155 158 160 162 161 159 159 156 150 147 149 151 152 155 157 158 160 162 162 161 158 156 157 164 169 166 157 146
Height
1512 1512 1512 1512 1511 1511 1512 1512 1512 1513 1513 1514 1514 1515 1515 1515 1513 1511 1509 1508 1508 1510 1511 1511 1511 1513 1514 1514 1515 1516 1516 1517 1518 1519 1519 1519 1520 1521 1521 1522 1523 1524 1526 1526 1527 1528 1529 1530 1531 1531 1532 1533 1534 1535 1537 1539 1540 1541 1542 1542 1543 1543 1543 1544 1544 1543 1543 1543 1543 1542 1542 1542 1541 1541
1510 1510 1510 1510 1509 1509 1509 1509 1509 1510 1510 1511 1511 1512 1512 1513 1512 1511 1508 1505 1505 1507 1508 1509 1509 1510 1511 1512 1512 1513 1513 1514 1515 1516 1516 1517 1517 1518 1519 1519 1520 1521 1522 1523 1524 1525 1526 1527 1528 1528 1529 1530 1531 1532 1534 1535 1537 1538 1539 1540 1541 1541 1542 1542 1542 1542 1542 1541 1541 1541 1541 1540 1540 1539
1509 1508 1507 1507 1507 1507 1507 1507 1507 1507 1507 1508 1508 1509 1509 1510 1509 1509 1508 1504 1502 1504 1505 1506 1507 1508 1508 1509 1509 1510 1510 1511 1511 1512 1513 1514 1514 1515 1515 1516 1517 1517 1518 1520 1521 1522 1523 1524 1525 1525 1526 1527 1528 1529 1530 1532 1533 1535 1536 1537 1538 1539 1539 1540 1540 1540 1540 1540 1540 1539 1539 1539 1538 1538
1507 1506 1505 1505 1505 1505 1505 1504 1504 1504 1504 1505 1505 1505 1506 1506 1506 1507 1506 1503 1500 1501 1502 1502 1503 1505 1505 1506 1506 1507 1507 1508 1508 1509 1509 1510 1511 1511 1511 1512 1513 1514 1515 1516 1517 1518 1519 1520 1521 1522 1523 1524 1525 1526 1527 1528 1530 1531 1533 1534 1536 1537 1537 1538 1538 1538 1538 1538 1538 1538 1537 1537 1537 1536
1504 1504 1503 1503 1503 1503 1502 1502 1502 1502 1502 1501 1502 1502 1502 1503 1503 1503 1503 1501 1498 1497 1498 1499 1499 1500 1502 1501 1502 1503 1504 1505 1505 1506 1506 1507 1507 1507 1508 1508 1509 1510 1511 1512 1513 1514 1515 1517 1518 1519 1520 1521 1521 1523 1524 1525 1527 1528 1530 1532 1533 1534 1535 1535 1535 1535 1536 1536 1536 1536 1535 1535 1535 1535
1502 1501 1501 1500 1500 1500 1499 1499 1499 1499 1499 1499 1498 1499 1499 1499 1500 1500 1500 1499 1497 1495 1495 1496 1496 1496 1497 1497 1498 1500 1500 1501 1502 1502 1503 1503 1503 1504 1504 1504 1505 1506 1507 1508 1509 1511 1512 1513 1514 1516 1517 1518 1518 1519 1520 1522 1523 1525 1527 1529 1530 1531 1532 1533 1533 1533 1533 1534 1534 1533 1533 1533 1533 1532
1499 1499 1498 1498 1497 1497 1496 1496 1496 1496 1496 1496 1495 1495 1495 1495 1495 1496 1496 1496 1494 1493 1492 1493 1493 1493 1494 1494 1494 1496 1496 1497 1497 1498 1499 1499 1499 1500 1500 1501 1501 1502 1503 1504 1505 1507 1508 1509 1510 1512 1513 1514 1515 1516 1517 1518 1520 1522 1524 1525 1527 1528 1529 1530 1530 1530 1530 1531 1531 1531 1531 1531 1530 1530
1497 1496 1496 1495 1495 1494 1493 1493 1493 1492 1492 1492 1492 1492 1492 1492 1491 1492 1492 1492 1491 1490 1489 1489 1490 1490 1490 1490 1490 1491 1492 1493 1493 1493 1494 1495 1496 1496 1496 1497 1498 1498 1499 1500 1501 1502 1504 1505 1506 1508 1509 1511 1512 1513 1514 1515 1516 1518 1520 1522 1524 1525 1526 1527 1527 1527 1527 1528 1528 1528 1528 1528 1528 1528
1495 1494 1493 1493 1492 1491 1490 1490 1489 1489 1489 1488 1488 1488 1488 1488 1488 1488 1488 1488 1487 1487 1485 1485 1485 1486 1486 1487 1487 1488 1488 1488 1489 1489 1490 1491 1492 1492 1493 1493 1494 1494 1494 1495 1496 1498 1499 1500 1501 1503 1505 1507 1508 1509 1511 1512 1513 1515 1517 1519 1520 1522 1523 1524 1524 1524 1524 1525 1525 1526 1526 1526 1526 1525
1492 1491 1490 1489 1489 1488 1487 1487 1486 1486 1485 1485 1484 1484 1484 1484 1484 1484 1484 1484 1483 1483 1482 1481 1481 1482 1483 1483 1484 1485 1485 1485 1485 1485 1486 1486 1487 1488 1488 1489 1490 1490 1490 1491 1492 1493 1494 1495 1497 1499 1502 1503 1504 1505 1507 1508 1509 1511 1513 1515 1517 1518 1519 1520 1521 1521 1521 1521 1522 1522 1523 1523 1523 1523
1489 1488 1487 1486 1485 1484 1484 1483 1483 1482 1482 1481 1481 1480 1480 1480 1480 1480 1480 1480 1479 1479 1478 1478 1478 1478 1478 1479 1480 1482 1482 1482 1481 1482 1482 1482 1483 1484 1484 1485 1486 1487 1487 1487 1488 1489 1490 1491 1493 1495 1498 1499 1500 1501 1503 1504 1506 1507 1509 1511 1513 1514 1516 1517 1517 1517 1518 1518 1518 1519 1520 1521 1521 1521
1484 1483 1483 1482 1481 1480 1479 1479 1479 1478 1478 1477 1476 1476 1477 1477 1476 1476 1476 1476 1475 1475 1475 1475 1475 1474 1474 1475 1476 1478 1479 1479 1478 1479 1478 1478 1478 1480 1480 1481 1482 1483 1483 1484 1484 1485 1486 1487 1489 1491 1493 1495 1495 1497 1499 1501 1502 1504 1506 1508 1509 1511 1512 1513 1514 1514 1514 1514 1515 1516 1517 1518 1518 1518
1480 1479 1478 1477 1477 1476 1475 1475 1474 1474 1473 1473 1472 1472 1472 1472 1472 1472 1471 1471 1471 1471 1471 1470 1471 1471 1470 1471 1472 1474 1475 1476 1476 1476 1475 1474 1475 1476 1476 1476 1478 1479 1480 1480 1480 1481 1483 1484 1484 1486 1488 1489 1490 1492 1495 1497 1498 1500 1502 1504 1506 1508 1509 1510 1511 1511 1511 1512 1513 1514 1514 1515 1515 1515
1475 1474 1474 1473 1472 1471 1471 1470 1469 1469 1469 1468 1467 1467 1467 1467 1467 1467 1466 1466 1467 1467 1466 1466 1467 1466 1465 1467 1468 1469 1471 1472 1473 1473 1473 1472 1472 1473 1472 1472 1473 1475 1476 1476 1476 1477 1479 1480 1480 1482 1483 1485 1487 1489 1491 1493 1494 1495 1497 1499 1501 1503 1505 1506 1507 1508 1508 1509 1510 1511 1512 1512 1512 1512
1470 1469 1468 1468 1467 1467 1466 1465 1465 1464 1463 1463 1462 1462 1462 1462 1462 1462 1461 1461 1462 1462 1461 1461 1462 1462 1461 1462 1464 1465 1466 1468 1469 1469 1469 1469 1469 1469 1469 1468 1469 1471 1472 1473 1473 1474 1475 1476 1477 1478 1480 1481 1483 1485 1487 1488 1489 1491 1493 1495 1496 1499 1501 1502 1503 1504 1505 1506 1507 1508 1509 1509 1509 1509
1466 1464 1463 1462 1462 1461 1461 1460 1460 1459 1458 1457 1457 1456 1456 1457 1457 1457 1456 1456 1456 1456 1456 1456 1456 1457 1457 1458 1459 1460 1462 1463 1464 1465 1466 1466 1466 1466 1466 1466 1466 1467 1469 1469 1470 1471 1473 1473 1473 1474 1476 1478 1479 1481 1483 1484 1485 1486 1488 1490 1492 1494 1496 1498 1499 1500 1501 1503 1504 1505 1506 1506 1506 1506
1462 1460 1459 1457 1456 1456 1455 1455 1454 1454 1453 1452 1451 1451 1450 1450 1450 1451 1451 1451 1451 1451 1451 1450 1449 1451 1453 1453 1454 1456 1458 1458 1459 1460 1461 1462 1463 1463 1463 1463 1463 1464 1465 1466 1467 1468 1469 1470 1470 1471 1473 1475 1476 1478 1479 1480 1480 1481 1484 1486 1487 1489 1492 1493 1495 1496 1498 1499 1500 1501 1502 1503 1503 1504
1458 1457 1455 1453 1451 1451 1450 1449 1449 1448 1448 1447 1446 1445 1444 1444 1444 1445 1445 1445 1446 1446 1446 1444 1443 1445 1448 1448 1449 1452 1453 1454 1455 1456 1457 1458 1458 1459 1459 1459 1460 1461 1462 1463 1464 1464 1465 1467 1467 1468 1470 1472 1473 1474 1476 1476 1476 1478 1480 1482 1483 1485 1488 1490 1491 1492 1494 1496 1497 1498 1499 1500 1500 1501
1453 1452 1451 1448 1446 1445 1445 1444 1444 1443 1443 1442 1440 1439 1438 1438 1438 1438 1438 1439 1440 1440 1440 1439 1438 1440 1442 1443 1444 1446 1448 1449 1450 1451 1452 1453 1454 1454 1454 1455 1456 1457 1459 1460 1460 1460 1462 1464 1464 1465 1467 1468 1469 1470 1472 1473 1473 1475 1476 1477 1479 1482 1484 1486 1487 1489 1490 1492 1493 1495 1496 1497 1497 1498
1449 1447 1446 1443 1442 1440 1439 1439 1439 1439 1438 1436 1435 1433 1432 1432 1432 1431 1432 1433 1433 1434 1434 1434 1434 1435 1436 1437 1438 1440 1442 1443 1444 1446 1447 1448 1450 1450 1450 1450 1451 1453 1455 1456 1457 1457 1459 1460 1461 1462 1463 1464 1465 1466 1468 1469 1470 1471 1473 1475 1477 1479 1480 1482 1484 1485 1487 1489 1490 1492 1493 1494 1495 1496
1443 1442 1440 1439 1436 1434 1434 1434 1434 1434 1433 1431 1429 1427 1426 1425 1424 1424 1426 1427 1427 1427 1427 1427 1428 1429 1430 1431 1432 1434 1435 1436 1439 1441 1440 1442 1446 1446 1445 1445 1446 1448 1451 1452 1454 1455 1455 1456 1457 1458 1459 1460 1461 1462 1464 1465 1466 1468 1469 1471 1473 1475 1477 1478 1480 1482 1484 1486 1487 1489 1490 1491 1492 1494
1436 1435 1434 1433 1431 1429 1428 1428 1428 1428 1428 1425 1423 1422 1420 1418 1417 1417 1420 1421 1420 1421 1421 1421 1421 1422 1423 1424 1425 1427 1429 1430 1433 1434 1433 1436 1441 1442 1440 1441 1442 1443 1445 1448 1451 1451 1451 1453 1454 1454 1455 1456 1457 1459 1460 1461 1463 1464 1465 1467 1469 1471 1473 1475 1477 1479 1481 1483 1484 1486 1487 1488 1490 1491
1429 1428 1427 1426 1425 1424 1423 1423 1422 1422 1422 1420 1418 1417 1415 1411 1409 1411 1414 1414 1414 1415 1414 1414 1415 1415 1416 1418 1419 1420 1422 1424 1426 1426 1427 1431 1435 1435 1435 1438 1439 1438 1437 1442 1447 1447 1447 1449 1450 1451 1452 1453 1453 1455 1456 1458 1459 1460 1461 1463 1465 1467 1470 1472 1473 1475 1477 1480 1482 1483 1485 1486 1488 1489
1422 1422 1421 1420 1419 1418 1417 1416 1416 1416 1415 1414 1412 1411 1409 1405 1404 1406 1408 1408 1408 1409 1408 1408 1409 1409 1410 1411 1412 1414 1416 1417 1419 1420 1422 1425 1427 1429 1431 1433 1434 1432 1432 1437 1442 1443 1444 1446 1447 1447 1449 1450 1450 1451 1452 1454 1455 1456 1458 1460 1462 1464 1466 1468 1469 1471 1474 1477 1479 1480 1482 1484 1485 1487
1417 1415 1415 1413 1413 1412 1410 1409 1408 1408 1408 1407 1405 1403 1402 1400 1400 1402 1402 1402 1403 1403 1402 1402 1403 1403 1404 1405 1406 1407 1409 1411 1413 1415 1417 1419 1421 1423 1425 1427 1429 1428 1429 1433 1437 1439 1441 1442 1443 1444 1445 1446 1447 1448 1449 1450 1451 1453 1454 1456 1458 1461 1463 1464 1466 1469 1472 1474 1476 1478 1480 1482 1483 1484
1412 1410 1409 1407 1406 1406 1404 1402 1402 1400 1400 1400 1398 1396 1395 1395 1396 1396 1395 1395 1396 1396 1396 1397 1396 1397 1398 1399 1399 1400 1402 1404 1406 1409 1411 1413 1415 1417 1420 1422 1424 1424 1426 1430 1433 1434 1436 1438 1439 1440 1441 1442 1444 1445 1445 1446 1447 1449 1451 1453 1454 1457 1459 1461 1464 1467 1470 1472 1474 1476 1478 1479 1481 1482
1408 1406 1404 1402 1400 1399 1397 1396 1395 1393 1393 1392 1390 1389 1389 1389 1390 1390 1389 1389 1389 1389 1390 1390 1390 1390 1392 1393 1393 1394 1396 1398 1400 1403 1405 1407 1410 1412 1414 1417 1419 1421 1423 1426 1428 1429 1432 1433 1435 1436 1437 1439 1440 1441 1442 1443 1444 1446 1448 1449 1451 1454 1457 1460 1463 1466 1468 1470 1472 1473 1475 1477 1478 1479
1403 1400 1398 1396 1394 1392 1390 1389 1387 1386 1385 1384 1383 1382 1383 1383 1384 1383 1383 1383 1383 1383 1383 1383 1383 1383 1385 1387 1387 1389 1391 1393 1395 1397 1399 1402 1404 1406 1409 1412 1415 1418 1420 1421 1422 1424 1427 1429 1431 1432 1434 1435 1436 1438 1439 1440 1441 1443 1445 1446 1449 1451 1454 1457 1461 1464 1466 1468 1469 1471 1472 1474 1475 1476
1399 1396 1393 1390 1388 1386 1384 1382 1380 1379 1378 1377 1376 1376 1377 1377 1377 1376 1376 1377 1377 1376 1375 1376 1376 1377 1379 1381 1382 1384 1387 1389 1390 1392 1394 1396 1398 1401 1404 1406 1410 1413 1415 1415 1417 1420 1422 1424 1427 1428 1430 1431 1433 1434 1436 1437 1439 1440 1442 1444 1446 1449 1452 1455 1458 1462 1464 1466 1468 1469 1471 1472 1473 1475
1394 1391 1388 1385 1382 1380 1378 1377 1375 1373 1372 1371 1370 1370 1370 1370 1369 1369 1369 1369 1369 1368 1368 1369 1369 1371 1373 1376 1378 1380 1382 1383 1385 1387 1389 1391 1393 1396 1398 1401 1404 1407 1409 1410 1412 1415 1417 1420 1422 1424 1425 1428 1430 1431 1433 1435 1436 1438 1440 1442 1444 1447 1449 1453 1456 1459 1462 1464 1466 1468 1470 1471 1472 1474
1389 1386 1383 1380 1378 1375 1373 1371 1369 1367 1366 1365 1364 1363 1362 1362 1362 1362 1362 1362 1361 1361 1361 1362 1363 1365 1368 1371 1372 1374 1376 1377 1379 1382 1384 1386 1387 1391 1394 1396 1399 1402 1404 1405 1407 1410 1412 1415 1417 1419 1421 1424 1426 1428 1430 1433 1434 1436 1438 1440 1442 1444 1447 1449 1453 1456 1459 1462 1465 1467 1468 1469 1471 1473
1385 1381 1378 1376 1373 1371 1368 1366 1364 1362 1360 1359 1357 1356 1356 1355 1355 1355 1355 1355 1355 1355 1355 1356 1358 1360 1363 1365 1366 1368 1370 1372 1374 1377 1379 1381 1383 1386 1389 1391 1394 1396 1399 1400 1402 1405 1407 1410 1413 1416 1418 1421 1423 1426 1428 1430 1432 1434 1436 1438 1440 1443 1445 1448 1451 1454 1458 1461 1463 1465 1466 1468 1470 1473
1381 1378 1375 1372 1370 1367 1364 1361 1359 1356 1355 1353 1352 1350 1349 1349 1348 1348 1348 1348 1348 1348 1349 1350 1352 1354 1357 1359 1361 1363 1365 1367 1370 1372 1374 1376 1379 1382 1384 1386 1389 1392 1394 1396 1397 1400 1403 1406 1409 1412 1415 1418 1421 1424 1426 1428 1430 1432 1434 1436 1438 1442 1445 1448 1451 1454 1457 1459 1462 1464 1466 1468 1470 1472
1379 1375 1372 1369 1367 1364 1360 1357 1354 1352 1350 1348 1346 1344 1343 1342 1342 1341 1341 1341 1341 1342 1344 1345 1346 1349 1351 1354 1356 1358 1360 1362 1365 1367 1370 1372 1374 1377 1379 1382 1384 1387 1390 1392 1394 1396 1398 1401 1405 1409 1413 1416 1419 1421 1424 1426 1428 1430 1433 1435 1437 1441 1445 1448 1451 1453 1456 1459 1461 1463 1465 1467 1469 1471
1376 1373 1369 1366 1363 1360 1357 1354 1351 1348 1346 1343 1341 1339 1338 1336 1336 1335 1335 1335 1336 1337 1339 1340 1342 1344 1346 1349 1351 1354 1356 1359 1361 1363 1365 1368 1370 1372 1375 1378 1381 1383 1385 1387 1390 1392 1394 1397 1400 1404 1409 1413 1416 1419 1422 1425 1427 1429 1432 1435 1438 1441 1444 1447 1450 1452 1455 1458 1460 1462 1465 1467 1469 1470
1373 1370 1367 1363 1360 1357 1353 1350 1347 1344 1342 1339 1337 1335 1333 1331 1331 1330 1330 1331 1332 1333 1334 1336 1337 1339 1341 1344 1347 1350 1353 1355 1357 1359 1361 1364 1366 1369 1372 1375 1377 1380 1381 1383 1386 1388 1390 1393 1396 1399 1403 1408 1412 1416 1420 1424 1427 1429 1431 1434 1437 1440 1442 1445 1449 1452 1454 1457 1460 1462 1464 1466 1468 1470
1371 1368 1364 1361 1357 1354 1350 1347 1344 1341 1338 1335 1333 1331 1329 1327 1326 1326 1326 1327 1328 1329 1330 1331 1333 1335 1337 1340 1343 1346 1349 1351 1353 1355 1358 1360 1363 1366 1368 1371 1374 1376 1378 1380 1383 1385 1387 1390 1393 1396 1400 1403 1407 1412 1418 1423 1428 1431 1432 1433 1436 1439 1442 1445 1448 1451 1454 1457 1460 1462 1464 1466 1468 1469
1369 1366 1362 1358 1355 1351 1347 1344 1340 1337 1334 1332 1330 1328 1326 1324 1323 1323 1323 1323 1324 1325 1326 1328 1329 1331 1334 1336 1339 1342 1345 1348 1350 1352 1355 1357 1360 1362 1365 1368 1371 1373 1376 1379 1381 1384 1386 1389 1392 1395 1397 1400 1403 1407 1413 1420 1426 1430 1433 1435 1436 1439 1442 1445 1447 1450 1453 1456 1459 1462 1464 1466 1467 1469
1368 1364 1360 1356 1352 1349 1345 1341 1338 1335 1332 1330 1327 1325 1323 1322 1321 1321 1321 1321 1321 1322 1323 1325 1326 1328 1330 1333 1336 1339 1342 1345 1347 1350 1352 1355 1357 1359 1362 1365 1368 1371 1374 1377 1380 1383 1387 1389 1391 1394 1397 1398 1400 1403 1408 1415 1423 1428 1433 1436 1438 1440 1442 1445 1447 1450 1453 1456 1459 1462 1464 1465 1467 1468
1366 1363 1359 1355 1350 1346 1343 1339 1336 1333 1330 1328 1325 1323 1322 1320 1319 1319 1318 1318 1319 1320 1321 1322 1324 1326 1328 1331 1334 1337 1340 1343 1345 1348 1350 1353 1355 1358 1360 1363 1367 1370 1373 1376 1379 1383 1386 1389 1392 1395 1397 1399 1402 1406 1410 1416 1423 1428 1432 1436 1439 1442 1444 1445 1447 1449 1453 1456 1458 1461 1463 1464 1466 1467
1364 1361 1357 1353 1349 1345 1342 1338 1335 1332 1329 1326 1324 1322 1320 1318 1317 1316 1316 1316 1316 1317 1319 1320 1322 1324 1327 1330 1332 1335 1338 1341 1343 1346 1348 1351 1354 1357 1359 1362 1366 1369 1372 1375 1379 1382 1386 1390 1392 1395 1397 1400 1404 1409 1413 1417 1422 1427 1432 1435 1439 1442 1445 1447 1448 1451 1453 1456 1458 1460 1462 1464 1465 1466
1364 1360 1356 1352 1349 1345 1342 1338 1335 1332 1328 1326 1323 1321 1319 1317 1316 1314 1314 1314 1314 1315 1316 1319 1321 1323 1326 1328 1331 1334 1337 1340 1342 1344 1347 1350 1353 1355 1358 1361 1364 1367 1370 1374 1378 1382 1386 1390 1393 1395 1400 1404 1406 1409 1413 1417 1421 1426 1431 1435 1438 1442 1446 1449 1451 1453 1455 1457 1458 1460 1462 1463 1464 1465
1364 1360 1356 1352 1349 1346 1342 1339 1335 1332 1328 1325 1323 1321 1318 1316 1315 1313 1313 1313 1313 1313 1314 1317 1319 1322 1325 1327 1330 1333 1336 1338 1341 1343 1346 1349 1351 1354 1358 1361 1364 1367 1370 1374 1378 1382 1386 1390 1394 1398 1401 1405 1408 1409 1413 1418 1422 1426 1430 1435 1438 1442 1446 1449 1452 1454 1455 1457 1459 1460 1462 1463 1464 1465
1364 1360 1357 1353 1350 1346 1343 1339 1336 1332 1329 1326 1323 1321 1319 1317 1315 1314 1313 1313 1313 1313 1314 1316 1318 1321 1324 1327 1329 1332 1335 1337 1340 1343 1346 1348 1351 1354 1357 1360 1364 1367 1370 1374 1378 1383 1388 1392 1396 1399 1402 1406 1409 1411 1414 1419 1423 1427 1431 1435 1439 1442 1445 1448 1451 1453 1455 1457 1459 1460 1461 1462 1463 1464
1365 1362 1358 1354 1351 1347 1344 1340 1337 1333 1330 1327 1324 1322 1320 1318 1317 1316 1315 1314 1315 1315 1316 1317 1319 1321 1323 1326 1329 1332 1335 1337 1340 1343 1346 1348 1351 1354 1357 1361 1364 1368 1372 1375 1378 1383 1389 1393 1398 1402 1405 1408 1412 1414 1417 1420 1425 1429 1432 1436 1439 1442 1445 1448 1450 1453 1455 1457 1459 1460 1461 1462 1463 1465